Time,TemperatureF,DewpointF,PressureIn,WindDirection,WindDirectionDegrees,WindSpeedMPH,WindSpeedGustMPH,Humidity,HourlyPrecipIn,Conditions,Clouds,dailyrainin,SolarRadiationWatts/m^2,SoftwareType,DateUTC
2013-09-25 00:11:00,49.0,25.0,-100.00,South,189,0.0,5.0,38,0.00,,,0.00,0.000000,,2013-09-25 07:11:00,
2013-09-25 00:21:00,49.0,25.0,-100.00,South,189,0.0,5.0,38,0.00,,,0.00,0.000000,,2013-09-25 07:21:00,
2013-09-25 00:33:00,49.0,25.0,-100.00,South,189,0.0,5.0,38,0.00,,,0.00,0.000000,,2013-09-25 07:33:00,
2013-09-25 01:11:00,50.0,26.0,-100.00,NNE,29,0.0,5.0,39,0.00,,,0.00,0.000000,,2013-09-25 08:11:00,
2013-09-25 01:21:00,50.0,26.0,-100.00,NNE,29,0.0,5.0,39,0.00,,,0.00,0.000000,,2013-09-25 08:21:00,
2013-09-25 01:32:00,50.0,26.0,-100.00,NNE,29,0.0,5.0,39,0.00,,,0.00,0.000000,,2013-09-25 08:32:00,
2013-09-25 02:11:00,49.0,24.0,-100.00,ESE,112,0.0,5.0,37,0.00,,,0.00,0.000000,,2013-09-25 09:11:00,
2013-09-25 02:21:00,49.0,24.0,-100.00,ESE,112,0.0,5.0,37,0.00,,,0.00,0.000000,,2013-09-25 09:21:00,
2013-09-25 02:33:00,49.0,24.0,-100.00,ESE,112,0.0,5.0,37,0.00,,,0.00,0.000000,,2013-09-25 09:33:00,
2013-09-25 04:12:00,46.0,21.0,-100.00,West,276,0.0,6.0,36,-99.99,,,0.00,0.000000,,2013-09-25 11:12:00,
2013-09-25 04:22:00,46.0,21.0,-100.00,West,276,0.0,6.0,36,-99.99,,,0.00,0.000000,,2013-09-25 11:22:00,
2013-09-25 04:33:00,46.0,21.0,-100.00,West,276,0.0,6.0,36,-99.99,,,0.00,0.000000,,2013-09-25 11:33:00,
2013-09-25 05:12:00,45.0,19.0,-100.00,WNW,284,0.0,6.0,35,0.00,,,0.00,0.000000,,2013-09-25 12:12:00,
2013-09-25 05:22:00,45.0,19.0,-100.00,WNW,284,0.0,6.0,35,0.00,,,0.00,0.000000,,2013-09-25 12:22:00,
2013-09-25 05:32:00,45.0,19.0,-100.00,WNW,284,0.0,6.0,35,0.00,,,0.00,0.000000,,2013-09-25 12:32:00,
2013-09-25 06:11:00,46.0,17.0,-100.00,NE,51,0.0,6.0,31,0.00,,,0.00,0.000000,,2013-09-25 13:11:00,
2013-09-25 06:21:00,46.0,17.0,-100.00,NE,51,0.0,6.0,31,0.00,,,0.00,0.000000,,2013-09-25 13:21:00,
2013-09-25 06:32:00,46.0,17.0,-100.00,NE,51,0.0,6.0,31,0.00,,,0.00,0.000000,,2013-09-25 13:32:00,
2013-09-25 07:11:00,45.0,18.0,-100.00,West,280,1.0,7.0,33,0.00,,,0.00,0.000000,,2013-09-25 14:11:00,
2013-09-25 07:22:00,45.0,18.0,-100.00,West,280,1.0,7.0,33,0.00,,,0.00,0.000000,,2013-09-25 14:22:00,
2013-09-25 07:32:00,45.0,18.0,-100.00,West,280,1.0,7.0,33,0.00,,,0.00,0.000000,,2013-09-25 14:32:00,
2013-09-25 08:11:00,46.0,27.0,-100.00,NNE,19,1.0,6.0,47,0.00,,,0.00,10.000000,,2013-09-25 15:11:00,
2013-09-25 09:13:00,53.0,31.0,-100.00,ESE,121,5.0,13.0,42,-99.99,,,0.00,31.000000,,2013-09-25 16:13:00,
2013-09-25 09:23:00,53.0,31.0,-100.00,ESE,121,5.0,13.0,42,-99.99,,,0.00,31.000000,,2013-09-25 16:23:00,
2013-09-25 09:32:00,53.0,31.0,-100.00,ESE,121,5.0,13.0,42,-99.99,,,0.00,31.000000,,2013-09-25 16:32:00,
2013-09-25 09:34:00,61.0,33.0,-100.00,ESE,119,7.0,19.0,35,0.00,,,0.00,454.000000,,2013-09-25 16:34:00,
2013-09-25 10:12:00,61.0,33.0,-100.00,ESE,119,7.0,19.0,35,0.00,,,0.00,454.000000,,2013-09-25 17:12:00,
2013-09-25 10:23:00,61.0,33.0,-100.00,ESE,119,7.0,19.0,35,0.00,,,0.00,454.000000,,2013-09-25 17:23:00,
2013-09-25 11:13:00,62.0,27.0,-100.00,ESE,111,9.0,21.0,26,0.00,,,0.00,792.000000,,2013-09-25 18:13:00,
2013-09-25 11:21:00,62.0,27.0,-100.00,ESE,111,9.0,21.0,26,0.00,,,0.00,792.000000,,2013-09-25 18:21:00,
2013-09-25 11:32:00,62.0,27.0,-100.00,ESE,111,9.0,21.0,26,0.00,,,0.00,792.000000,,2013-09-25 18:32:00,
2013-09-25 12:11:00,62.0,19.0,-100.00,ESE,108,10.0,18.0,19,0.00,,,0.00,955.000000,,2013-09-25 19:11:00,
2013-09-25 12:22:00,62.0,19.0,-100.00,ESE,108,10.0,18.0,19,0.00,,,0.00,955.000000,,2013-09-25 19:22:00,
2013-09-25 12:31:00,62.0,19.0,-100.00,ESE,108,10.0,18.0,19,0.00,,,0.00,955.000000,,2013-09-25 19:31:00,
2013-09-25 13:12:00,64.0,20.0,-100.00,ESE,111,9.0,22.0,18,0.00,,,0.00,1045.000000,,2013-09-25 20:12:00,
2013-09-25 13:22:00,64.0,20.0,-100.00,ESE,111,9.0,22.0,18,0.00,,,0.00,1045.000000,,2013-09-25 20:22:00,
2013-09-25 13:32:00,64.0,20.0,-100.00,ESE,111,9.0,22.0,18,0.00,,,0.00,1045.000000,,2013-09-25 20:32:00,
2013-09-25 13:34:00,64.0,23.0,-100.00,ESE,116,8.0,19.0,21,0.00,,,0.00,1055.000000,,2013-09-25 20:34:00,
2013-09-25 14:12:00,64.0,23.0,-100.00,ESE,116,8.0,19.0,21,0.00,,,0.00,1055.000000,,2013-09-25 21:12:00,
2013-09-25 14:22:00,64.0,23.0,-100.00,ESE,116,8.0,19.0,21,0.00,,,0.00,1055.000000,,2013-09-25 21:22:00,
2013-09-25 15:14:00,63.0,28.0,-100.00,ESE,121,6.0,19.0,26,0.00,,,0.00,989.000000,,2013-09-25 22:14:00,
2013-09-25 15:23:00,63.0,28.0,-100.00,ESE,121,6.0,19.0,26,0.00,,,0.00,989.000000,,2013-09-25 22:23:00,
2013-09-25 15:33:00,63.0,28.0,-100.00,ESE,121,6.0,19.0,26,0.00,,,0.00,989.000000,,2013-09-25 22:33:00,
2013-09-25 15:34:00,62.0,28.0,-100.00,ESE,114,8.0,18.0,27,0.00,,,0.00,849.000000,,2013-09-25 22:34:00,
2013-09-25 16:12:00,62.0,28.0,-100.00,ESE,114,8.0,18.0,27,0.00,,,0.00,849.000000,,2013-09-25 23:12:00,
2013-09-25 16:22:00,62.0,28.0,-100.00,ESE,114,8.0,18.0,27,0.00,,,0.00,849.000000,,2013-09-25 23:22:00,
2013-09-25 17:12:00,59.0,35.0,-100.00,ESE,111,10.0,20.0,40,0.00,,,0.00,617.000000,,2013-09-26 00:12:00,
2013-09-25 17:22:00,59.0,35.0,-100.00,ESE,111,10.0,20.0,40,0.00,,,0.00,617.000000,,2013-09-26 00:22:00,
2013-09-25 17:32:00,59.0,35.0,-100.00,ESE,111,10.0,20.0,40,0.00,,,0.00,617.000000,,2013-09-26 00:32:00,
2013-09-25 18:12:00,53.0,38.0,-100.00,West,274,7.0,19.0,57,0.00,,,0.00,46.000000,,2013-09-26 01:12:00,
2013-09-25 18:22:00,53.0,38.0,-100.00,West,274,7.0,19.0,57,0.00,,,0.00,46.000000,,2013-09-26 01:22:00,
2013-09-25 18:32:00,53.0,38.0,-100.00,West,274,7.0,19.0,57,0.00,,,0.00,46.000000,,2013-09-26 01:32:00,
2013-09-25 19:12:00,49.0,37.0,-100.00,NW,322,2.0,17.0,64,0.00,,,0.00,21.000000,,2013-09-26 02:12:00,
2013-09-25 19:21:00,49.0,37.0,-100.00,NW,322,2.0,17.0,64,0.00,,,0.00,21.000000,,2013-09-26 02:21:00,
2013-09-25 19:32:00,49.0,37.0,-100.00,NW,322,2.0,17.0,64,0.00,,,0.00,21.000000,,2013-09-26 02:32:00,
2013-09-25 19:34:00,46.0,36.0,-100.00,SSW,208,0.0,9.0,68,0.00,,,0.00,1.000000,,2013-09-26 02:34:00,
2013-09-25 20:12:00,46.0,36.0,-100.00,SSW,208,0.0,9.0,68,0.00,,,0.00,1.000000,,2013-09-26 03:12:00,
2013-09-25 20:22:00,46.0,36.0,-100.00,SSW,208,0.0,9.0,68,0.00,,,0.00,1.000000,,2013-09-26 03:22:00,
2013-09-25 20:34:00,46.0,30.0,-100.00,WSW,237,3.0,11.0,53,0.00,,,0.00,0.000000,,2013-09-26 03:34:00,
2013-09-25 21:13:00,46.0,30.0,-100.00,WSW,237,3.0,11.0,53,0.00,,,0.00,0.000000,,2013-09-26 04:13:00,
2013-09-25 21:24:00,46.0,30.0,-100.00,WSW,237,3.0,11.0,53,0.00,,,0.00,0.000000,,2013-09-26 04:24:00,
2013-09-25 22:12:00,47.0,23.0,-100.00,ESE,110,5.0,15.0,39,0.00,,,0.00,0.000000,,2013-09-26 05:12:00,
2013-09-25 22:23:00,47.0,23.0,-100.00,ESE,110,5.0,15.0,39,0.00,,,0.00,0.000000,,2013-09-26 05:23:00,
2013-09-25 22:33:00,47.0,23.0,-100.00,ESE,110,5.0,15.0,39,0.00,,,0.00,0.000000,,2013-09-26 05:33:00,
2013-09-25 23:12:00,49.0,12.0,-100.00,NE,53,4.0,13.0,22,0.00,,,0.00,0.000000,,2013-09-26 06:12:00,
2013-09-25 23:22:00,49.0,12.0,-100.00,NE,53,4.0,13.0,22,0.00,,,0.00,0.000000,,2013-09-26 06:22:00,
2013-09-25 23:33:00,49.0,12.0,-100.00,NE,53,4.0,13.0,22,0.00,,,0.00,0.000000,,2013-09-26 06:33:00,